When you browse on this site, cookies collect data to enhance your experience and personalize the content and advertising you see.
Visit our Privacy Policy to learn more. By continuing to use the site, you agree to this use of cookies and data.

Meteo pe oră la Antwerp

Astăzi, 5 August, Miercuri

Timp Temperatura Precipitaţii Vânt Presiune Umiditate
00:00 +16°C° 0 mm 2 m/s 761 mmHg 72%
01:00 +16°C° 0 mm 2 m/s 761 mmHg 71%
02:00 +16°C° 0 mm 3 m/s 761 mmHg 70%
03:00 +14°C° 0 mm 3 m/s 761 mmHg 70%
04:00 +16°C° 0 mm 3 m/s 761 mmHg 67%
05:00 +17°C° 0 mm 4 m/s 761 mmHg 65%
06:00 +17°C° 0 mm 4 m/s 761 mmHg 62%
07:00 +19°C° 0 mm 4 m/s 761 mmHg 55%
08:00 +21°C° 0 mm 4 m/s 761 mmHg 49%
09:00 +25°C° 0 mm 4 m/s 761 mmHg 42%
10:00 +26°C° 0 mm 5 m/s 761 mmHg 40%
11:00 +27°C° 0 mm 5 m/s 761 mmHg 37%
12:00 +28°C° 0 mm 5 m/s 761 mmHg 34%
13:00 +29°C° 0 mm 5 m/s 761 mmHg 34%
14:00 +29°C° 0 mm 4 m/s 760 mmHg 34%
15:00 +29°C° 0 mm 4 m/s 760 mmHg 34%
16:00 +29°C° 0 mm 4 m/s 760 mmHg 38%
17:00 +28°C° 0 mm 3 m/s 760 mmHg 42%
18:00 +27°C° 0 mm 3 m/s 761 mmHg 47%
19:00 +25°C° 0 mm 2 m/s 761 mmHg 49%
20:00 +23°C° 0 mm 2 m/s 761 mmHg 52%
21:00 +20°C° 0 mm 2 m/s 761 mmHg 55%
22:00 +21°C° 0 mm 1 m/s 761 mmHg 57%
23:00 +20°C° 0 mm 1 m/s 762 mmHg 60%

Mâine, 6 August, Joi

Timp Temperatura Precipitaţii Vânt Presiune Umiditate
00:00 +19°C° 0 mm 1 m/s 762 mmHg 62%
01:00 +19°C° 0 mm 1 m/s 762 mmHg 62%
02:00 +19°C° 0 mm 1 m/s 762 mmHg 61%
03:00 +18°C° 0 mm 2 m/s 762 mmHg 61%
04:00 +18°C° 0 mm 2 m/s 762 mmHg 61%
05:00 +19°C° 0 mm 2 m/s 763 mmHg 61%
06:00 +19°C° 0 mm 2 m/s 763 mmHg 61%
07:00 +21°C° 0 mm 2 m/s 763 mmHg 55%
08:00 +25°C° 0 mm 2 m/s 763 mmHg 49%
09:00 +27°C° 0 mm 2 m/s 763 mmHg 43%
10:00 +28°C° 0 mm 2 m/s 763 mmHg 40%
11:00 +30°C° 0 mm 2 m/s 763 mmHg 36%
12:00 +31°C° 0 mm 2 m/s 763 mmHg 33%
13:00 +32°C° 0 mm 2 m/s 763 mmHg 32%
14:00 +32°C° 0 mm 2 m/s 763 mmHg 32%
15:00 +32°C° 0 mm 2 m/s 763 mmHg 31%
16:00 +31°C° 0 mm 2 m/s 763 mmHg 35%
17:00 +30°C° 0 mm 2 m/s 763 mmHg 40%
18:00 +29°C° 0 mm 2 m/s 763 mmHg 44%
19:00 +28°C° 0 mm 2 m/s 763 mmHg 47%
20:00 +26°C° 0 mm 2 m/s 763 mmHg 49%
21:00 +25°C° 0 mm 2 m/s 764 mmHg 52%
22:00 +24°C° 0 mm 2 m/s 764 mmHg 54%
23:00 +23°C° 0 mm 2 m/s 764 mmHg 56%

Poimâine, 7 August, Vineri

Timp Temperatura Precipitaţii Vânt Presiune Umiditate
00:00 +21°C° 0 mm 2 m/s 764 mmHg 59%
01:00 +21°C° 0 mm 2 m/s 764 mmHg 60%
02:00 +20°C° 0 mm 2 m/s 764 mmHg 60%
03:00 +20°C° 0 mm 2 m/s 764 mmHg 61%
04:00 +20°C° 0 mm 2 m/s 764 mmHg 62%
05:00 +21°C° 0 mm 2 m/s 764 mmHg 62%
06:00 +21°C° 0 mm 2 m/s 764 mmHg 62%
07:00 +25°C° 0 mm 2 m/s 764 mmHg 56%
08:00 +27°C° 0 mm 2 m/s 764 mmHg 50%
09:00 +29°C° 0 mm 2 m/s 764 mmHg 44%
10:00 +30°C° 0 mm 3 m/s 764 mmHg 40%
11:00 +33°C° 0 mm 3 m/s 764 mmHg 37%
12:00 +34°C° 0 mm 3 m/s 763 mmHg 33%
13:00 +34°C° 0 mm 3 m/s 763 mmHg 32%
14:00 +35°C° 0 mm 3 m/s 763 mmHg 32%
15:00 +35°C° 0 mm 3 m/s 763 mmHg 31%
16:00 +34°C° 0 mm 3 m/s 762 mmHg 36%
17:00 +33°C° 0 mm 3 m/s 762 mmHg 40%
18:00 +30°C° 0 mm 3 m/s 762 mmHg 45%
19:00 +29°C° 0 mm 3 m/s 762 mmHg 47%
20:00 +27°C° 0 mm 3 m/s 762 mmHg 50%
21:00 +26°C° 0 mm 3 m/s 762 mmHg 53%
22:00 +25°C° 0 mm 3 m/s 762 mmHg 55%
23:00 +25°C° 0 mm 2 m/s 762 mmHg 58%

8 August, Sâmbătă

Timp Temperatura Precipitaţii Vânt Presiune Umiditate
00:00 +24°C° 0 mm 2 m/s 762 mmHg 61%
01:00 +24°C° 0 mm 2 m/s 762 mmHg 64%
02:00 +24°C° 0 mm 2 m/s 762 mmHg 68%
03:00 +23°C° 0 mm 1 m/s 762 mmHg 71%
04:00 +24°C° 0 mm 1 m/s 762 mmHg 71%
05:00 +25°C° 0 mm 1 m/s 762 mmHg 71%
06:00 +25°C° 0 mm 1 m/s 762 mmHg 71%
07:00 +27°C° 0 mm 1 m/s 763 mmHg 64%
08:00 +29°C° 0 mm 1 m/s 763 mmHg 57%
09:00 +31°C° 0 mm 1 m/s 763 mmHg 51%
10:00 +33°C° 0 mm 1 m/s 763 mmHg 46%
11:00 +34°C° 0 mm 1 m/s 763 mmHg 42%
12:00 +35°C° 0 mm 1 m/s 762 mmHg 37%
13:00 +35°C° 0 mm 1 m/s 762 mmHg 36%
14:00 +36°C° 0 mm 2 m/s 762 mmHg 36%
15:00 +37°C° 0 mm 3 m/s 762 mmHg 35%
16:00 +35°C° 0 mm 3 m/s 762 mmHg 41%
17:00 +34°C° 0 mm 3 m/s 762 mmHg 46%
18:00 +33°C° 0 mm 4 m/s 762 mmHg 51%
19:00 +30°C° 0 mm 4 m/s 762 mmHg 53%
20:00 +29°C° 0 mm 4 m/s 762 mmHg 55%
21:00 +28°C° 0 mm 4 m/s 763 mmHg 57%
22:00 +27°C° 0.1 mm 3 m/s 763 mmHg 61%
23:00 +26°C° 0.1 mm 3 m/s 762 mmHg 66%

9 August, Duminică

Timp Temperatura Precipitaţii Vânt Presiune Umiditate
00:00 +25°C° 0.1 mm 2 m/s 762 mmHg 70%
01:00 +25°C° 0 mm 2 m/s 762 mmHg 72%
02:00 +24°C° 0 mm 2 m/s 762 mmHg 74%
03:00 +24°C° 0 mm 2 m/s 762 mmHg 75%
04:00 +24°C° 0.2 mm 2 m/s 762 mmHg 76%
05:00 +24°C° 0.2 mm 2 m/s 762 mmHg 76%
06:00 +24°C° 0.2 mm 2 m/s 762 mmHg 76%
07:00 +26°C° 0.2 mm 3 m/s 762 mmHg 72%
08:00 +27°C° 0.2 mm 3 m/s 762 mmHg 68%
09:00 +28°C° 0.2 mm 3 m/s 761 mmHg 64%
10:00 +30°C° 0 mm 3 m/s 761 mmHg 57%
11:00 +33°C° 0 mm 3 m/s 761 mmHg 49%
12:00 +35°C° 0 mm 3 m/s 761 mmHg 42%
13:00 +35°C° 0.1 mm 3 m/s 760 mmHg 42%
14:00 +35°C° 0.1 mm 3 m/s 760 mmHg 41%
15:00 +35°C° 0.1 mm 3 m/s 759 mmHg 41%
16:00 +34°C° 0.1 mm 4 m/s 759 mmHg 44%
17:00 +33°C° 0.1 mm 4 m/s 759 mmHg 48%
18:00 +32°C° 0.1 mm 5 m/s 759 mmHg 52%
19:00 +30°C° 1.1 mm 5 m/s 759 mmHg 58%
20:00 +28°C° 1.1 mm 5 m/s 759 mmHg 65%
21:00 +27°C° 1.1 mm 5 m/s 760 mmHg 71%
22:00 +26°C° 2.5 mm 5 m/s 759 mmHg 77%
23:00 +25°C° 2.5 mm 5 m/s 759 mmHg 82%

10 August, Luni

Timp Temperatura Precipitaţii Vânt Presiune Umiditate
00:00 +23°C° 2.5 mm 5 m/s 759 mmHg 87%
01:00 +22°C° 1.5 mm 4 m/s 759 mmHg 88%
02:00 +22°C° 1.5 mm 3 m/s 759 mmHg 89%
03:00 +22°C° 1.5 mm 3 m/s 759 mmHg 90%
04:00 +22°C° 1 mm 3 m/s 759 mmHg 89%
05:00 +22°C° 1 mm 3 m/s 759 mmHg 89%
06:00 +22°C° 1 mm 3 m/s 759 mmHg 89%
07:00 +25°C° 0 mm 3 m/s 759 mmHg 81%
08:00 +26°C° 0 mm 2 m/s 759 mmHg 73%
09:00 +28°C° 0 mm 2 m/s 759 mmHg 65%
10:00 +30°C° 0 mm 1 m/s 758 mmHg 59%
11:00 +31°C° 0 mm 1 m/s 758 mmHg 53%
12:00 +33°C° 0 mm 1 m/s 758 mmHg 47%
13:00 +33°C° 0 mm 1 m/s 758 mmHg 47%
14:00 +34°C° 0 mm 2 m/s 758 mmHg 47%
15:00 +35°C° 0 mm 2 m/s 758 mmHg 47%
16:00 +32°C° 0 mm 2 m/s 758 mmHg 53%
17:00 +31°C° 0 mm 3 m/s 758 mmHg 59%
18:00 +29°C° 0 mm 3 m/s 758 mmHg 66%
19:00 +28°C° 0.1 mm 3 m/s 758 mmHg 71%
20:00 +26°C° 0.1 mm 2 m/s 759 mmHg 76%
21:00 +25°C° 0.1 mm 2 m/s 759 mmHg 82%
22:00 +24°C° 0 mm 2 m/s 759 mmHg 83%
23:00 +24°C° 0 mm 1 m/s 759 mmHg 85%
Arată mai mult